Hourly Data Report for October 10, 2012

All times are specified in Local Standard Time (LST). Add 1 hour to adjust for Daylight Saving Time where and when it is observed.

ST LEONARD CS
NEW BRUNSWICK

47°09'28.050" N
67°49'55.014" W
245.00 m
810I001
71019
WIY

Download Data

Hourly Data (October 2012)
Hourly Data Report for October 10, 2012
Temp Definition
°C
Dew Point Temp Definition
°C
Rel Hum Definition
%
Wind Dir Definition
10's deg

Wind Spd Definition
km/h
Visibility Definition
km
Stn Press Definition
kPa
Hmdx Definition


Wind Chill Definition


Weather Definition


TIME
00:00 1.2 -2.0 79 11 4   99.29     LegendNANA
01:00 2.1 -1.3 78 10 7   99.27     LegendNANA
02:00 1.8 -1.1 81 11 4   99.26     LegendNANA
03:00 1.2 -1.1 85 10 6   99.22     LegendNANA
04:00 0.8 -0.9 88 9 6   99.16     LegendNANA
05:00 0.1 -1.0 92 9 4   99.12     LegendNANA
06:00 0.4 -0.7 92 9 6   99.10     LegendNANA
07:00 -0.2 -2.3 86   0   99.07     LegendNANA
08:00 1.9 0.3 89 9 6   99.00     LegendNANA
09:00 5.1 1.5 78 10 6   98.96     LegendNANA
10:00 6.2 2.7 78 11 6   98.90     LegendNANA
11:00 7.0 3.5 78 13 9   98.81     LegendNANA
12:00 8.2 4.7 79 13 11   98.69     LegendNANA
13:00 9.1 6.0 81 13 13   98.57     LegendNANA
14:00 9.3 6.9 85 15 15   98.46     LegendNANA
15:00 9.8 7.9 88 16 17   98.33     LegendNANA
16:00 9.7 7.8 88 18 9   98.27     LegendNANA
17:00 9.7 8.2 90 18 11   98.13     LegendNANA
18:00 9.5 8.5 93 16 15   98.02     LegendNANA
19:00 9.9 9.1 95 15 15   97.90     LegendNANA
20:00 9.8 9.2 96 13 7   97.78     LegendNANA
21:00 9.9 9.3 96 14 7   97.67     LegendNANA
22:00 10.0 9.5 97 12 11   97.43     LegendNANA
23:00 10.5 10.0 97 13 13   97.25     LegendNANA

Notes on Data Quality.

Legend

  • E = Estimated
  • M = Missing
  • NA = Not Available
  • ‡ = Partner data that is not subject to review by the National Climate Archives
Date modified: